Regional Weather Roundup
Issued by NWS Charleston, SC

Current Version | Previous Version | Text Only | Print | Product List | Glossary Off
Versions: 1 2 3 4 5 6 7 8 9 10 11 12 13 14 15 16 17 18 19 20 21 22 23 24 25 26 27 28 29 30 31 32 33 34 35 36 37 38 39 40 41 42 43 44 45 46 47 48 49 50

000
ASUS42 KCHS 261812
RWRCHS

Regional Weather Roundup
National Weather Service Charleston SC
200 PM EDT THU APR 26 2018

NOTE: "fair" indicates few or no clouds below 12,000 feet with no
significant weather and/or obstructions to visibility.

Not all stations are quality controlled. Use data with caution,
especially dewpoint observations.

SCZ027-030-031-034>040-042>050-261900-
...Southeast South Carolina...

CITY           SKY/WX    TMP DP  RH WIND       PRES   REMARKS
N Charleston   FAIR      77  57  50 S10G18    29.85F
6HR MIN TEMP:  60; 6HR MAX TEMP:  78;

Waterfront Prk NOT AVBL
Mount Pleasant FAIR      75  57  53 S13G18    29.86F
Johns Island   FAIR      73  55  53 S16       29.87S
Pinopolis        N/A     73  57  56 SW5       29.78F
Moncks Corner  MOCLDY    75  52  43 SW7       29.85S
Summerville    MOCLDY    75  55  50 S5        29.86S
Beaufort MCAS  FAIR      77  56  48 SW10G18   29.86
6HR MIN TEMP:  56; 6HR MAX TEMP:  78;

Beaufort Arpt  FAIR      73  57  56 S13       29.86S
Hilton Head Is MOSUNNY   72  57  60 S9        29.88F
Walterboro     MOCLDY    75  54  46 SW10      29.87R
Allendale      FAIR      73  54  49 CALM      29.85F

...Southern Midlands and Pee Dee...

CITY           SKY/WX    TMP DP  RH WIND       PRES   REMARKS
Georgetown     FAIR      73  55  53 S12G20    29.87S
Kingstree      FAIR      75  52  43 SW8       29.84F
Orangeburg     FAIR      72  54  53 SW5       29.85F
6HR MIN TEMP:  60; 6HR MAX TEMP:  74;

Barnwell       FAIR      72  54  53 SW7       29.85F
Aiken          FAIR      70  54  56 SW5       29.88S
Manning        FAIR      70  52  52 SW5       29.84F
Columbia       PTSUNNY   75  57  53 VRB7      29.83F
6HR MIN TEMP:  59; 6HR MAX TEMP:  75;

Sumter         CLOUDY    75  54  48 S8        29.82
6HR MIN TEMP:  60; 6HR MAX TEMP:  76;

Florence       PTSUNNY   77  57  50 S7        29.84F
6HR MIN TEMP:  62; 6HR MAX TEMP:  77;

Myrtle Beach   FAIR      71  61  70 S10       29.88F
N Myrtle Beach FAIR      71  61  70 VRB7      29.87F
6HR MIN TEMP:  63; 6HR MAX TEMP:  74;


$$

GAZ063-065-086>088-099>101-113>116-118-119-134>141-150-261900-
...Southeast Georgia...

CITY           SKY/WX    TMP DP  RH WIND       PRES   REMARKS
Savannah Arpt  PTSUNNY   76  54  46 VRB6      29.86F
6HR MIN TEMP:  58; 6HR MAX TEMP:  78;

Hunter AAF     FAIR      78  56  46 S6        29.84
6HR MIN TEMP:  59; 6HR MAX TEMP:  79;

Fort Stewart   FAIR      78  54  43 SW8       29.84
6HR MIN TEMP:  57; 6HR MAX TEMP:  78;

Statesboro     FAIR      74  48  39 W8        29.87F
Sylvania       FAIR      73  57  56 NW8       29.87F
Claxton        FAIR      76  55  47 S6        29.86F

...CSRA, Central and far Southeast Georgia...

CITY           SKY/WX    TMP DP  RH WIND       PRES   REMARKS
Thomson        PTSUNNY   68  55  61 W3        29.90F
Augusta-Bush   FAIR      72  54  53 S9        29.85F
6HR MIN TEMP:  55; 6HR MAX TEMP:  72;

Augusta-Daniel FAIR      72  55  55 S8        29.85F
Swainsboro     FAIR      72  54  53 W7        29.88F
Vidalia        FAIR      73  52  46 NW8       29.87F
Eastman        FAIR      73  43  33 SW8       29.90F
Hazlehurst     FAIR      76  50  40 CALM      29.86F
Alma           FAIR      78  54  43 SW8       29.86F
6HR MIN TEMP:  57; 6HR MAX TEMP:  80;

Waycross       FAIR      80  50  35 SW9       29.86F
Jesup          NOT AVBL
Baxley         FAIR      73  52  46 SW5       29.86F
Brunswick      PTSUNNY   79  55  44 S8G20     29.88F
Saint Simons   FAIR      73  60  63 SE13      29.88F
6HR MIN TEMP:  63; 6HR MAX TEMP:  74;


$$

SCZ027-028-034-036>038-045-046-048>050-GAZ119-141-261900-
...Lake and Supplemental Coastal Observations...

STATION/POSITION TIME  TEMP    WIND        PRES    WAVE   SWELL
                       AIR SEA DIR/SP/G            HT/PER HT/PER/DIR
                 (UTC) (F)     (DEG/KT/KT) (MB)    (FT/S) (FT/S/D)
Winyah Bay       1645   73     190/ 11     1012.0
Lake Murray      1720   72        CALM     1010.2
ACE Basin NERRS  1645   74     350/  2       N/A
Fort Pulaski     1748   72 67  200/  8/ 13 1011.7F
Sapelo Island    1700   75     160/  8     1012.0

$$

ANZ835-935-AMZ111-154-330-350-352-354-370-450-454-472-261900-
...C-MAN and Buoy Observations...

STATION/POSITION TIME  TEMP    WIND        PRES    WAVE   SWELL
                       AIR SEA DIR/SP/G            HT/PER HT/PER/DIR
                 (UTC) (F)     (DEG/KT/KT) (MB)    (FT/S) (FT/S/D)
Buoy 41004       1750      70  200/  8/ 10 1012.1F   3/ 9   3/120/ 9
Buoy 41008       1750   67 68  160/  8/ 10 1011.9F   2/ 9   2/ 70/ 9
Folly Beach CMAN 1700   69     190/  9/ 11 1012.4F
Capers Nearshore 1708   67 66  220/ 12/ 14 1012.3F
Fripp Nearshore  1708   65 66  190/ 10/ 12 1011.5F


STATION/POSITION TIME  TEMP    WIND        PRES    WAVE   SWELL
                       AIR SEA DIR/SP/G            HT/PER HT/PER/DIR
                 (UTC) (F)     (DEG/KT/KT) (MB)    (FT/S) (FT/S/D)
5E St. Marys GA  1800      70                N/A     2/ 8
Frying Pan Buoy  1750   72 71  190/ 12/ 14 1012.0F   4/ 9   5/100/ 9
Buoy 41025       1750   68 71   50/  6/  8 1012.9F   5/10   5/ 80/10
Cape Lookout NC  1700          120/  8/  9 1012.7F
Buoy 41002       1750   72 74  210/ 14/ 16 1013.7F   6/ 8   5/110/ 8
Buoy 41010       1750   75 76  210/ 12/ 16 1013.9F   5/ 8   5/ 70/ 8
St Augustine FL  1800   69 70  130/  9/ 11 1012.7F


$$




USA.gov is the U.S. government's official web portal to all federal, state and local government web resources and services.